TimePDT,TemperatureF,Dew PointF,Humidity,Sea Level PressureIn,VisibilityMPH,Wind Direction,Wind SpeedMPH,Gust SpeedMPH,PrecipitationIn,Events,Conditions,WindDirDegrees,DateUTC
12:56 AM,39.9,26.1,58,30.03,10.0,South,6.9,-,N/A,,Clear,170,2012-10-10 07:56:00
1:56 AM,39.0,25.0,57,30.03,10.0,Calm,Calm,-,N/A,,Clear,0,2012-10-10 08:56:00
2:56 AM,35.1,23.0,61,30.02,10.0,ESE,4.6,-,N/A,,Clear,120,2012-10-10 09:56:00
3:56 AM,30.0,21.0,69,30.03,10.0,Calm,Calm,-,N/A,,Clear,0,2012-10-10 10:56:00
4:56 AM,30.9,21.9,69,30.02,10.0,SE,4.6,-,N/A,,Clear,130,2012-10-10 11:56:00
5:56 AM,32.0,23.0,69,30.02,10.0,SE,3.5,-,N/A,,Clear,140,2012-10-10 12:56:00
6:56 AM,28.9,21.9,75,30.04,10.0,Calm,Calm,-,N/A,,Clear,0,2012-10-10 13:56:00
7:56 AM,34.0,23.0,64,30.04,8.0,SE,3.5,-,N/A,,Clear,140,2012-10-10 14:56:00
8:56 AM,46.0,26.1,46,30.03,10.0,SSE,4.6,-,N/A,,Clear,150,2012-10-10 15:56:00
9:56 AM,55.0,28.0,35,30.03,10.0,Variable,3.5,-,N/A,,Clear,0,2012-10-10 16:56:00
10:56 AM,60.1,28.0,30,30.00,10.0,Calm,Calm,-,N/A,,Clear,0,2012-10-10 17:56:00
11:56 AM,66.0,28.9,25,29.97,10.0,Calm,Calm,-,N/A,,Clear,0,2012-10-10 18:56:00
12:56 PM,71.1,27.0,19,29.94,10.0,Variable,3.5,-,N/A,,Clear,0,2012-10-10 19:56:00
1:56 PM,73.0,24.1,16,29.91,10.0,Variable,4.6,-,N/A,,Clear,0,2012-10-10 20:56:00
2:56 PM,73.9,18.0,12,29.89,10.0,Calm,Calm,-,N/A,,Clear,0,2012-10-10 21:56:00
3:56 PM,75.0,21.0,13,29.89,10.0,Calm,Calm,-,N/A,,Clear,0,2012-10-10 22:56:00
4:56 PM,75.0,24.1,15,29.87,10.0,Calm,Calm,-,N/A,,Clear,0,2012-10-10 23:56:00
5:56 PM,73.0,26.1,17,29.87,10.0,North,4.6,-,N/A,,Clear,360,2012-10-11 00:56:00
6:56 PM,61.0,25.0,25,29.90,10.0,Calm,Calm,-,N/A,,Clear,0,2012-10-11 01:56:00
7:56 PM,52.0,25.0,35,29.92,10.0,WSW,3.5,-,N/A,,Clear,250,2012-10-11 02:56:00
8:56 PM,48.0,25.0,41,29.91,10.0,Calm,Calm,-,N/A,,Clear,0,2012-10-11 03:56:00
9:56 PM,43.0,23.0,45,29.92,10.0,Calm,Calm,-,N/A,,Clear,0,2012-10-11 04:56:00
10:56 PM,43.0,25.0,49,29.92,10.0,SSW,3.5,-,N/A,,Clear,210,2012-10-11 05:56:00
11:56 PM,41.0,24.1,51,29.91,10.0,South,3.5,-,N/A,,Clear,170,2012-10-11 06:56:00